Regional Weather Roundup
Issued by NWS Green Bay, WI

Home | Current Version | Previous Version | Graphics & Text | Print | Product List | Glossary Off
Versions: 1 2 3 4 5 6 7 8 9 10 11 12 13 14 15 16 17 18 19 20 21 22 23 24 25 26 27 28 29 30 31 32 33 34 35 36 37 38 39 40 41 42 43 44 45 46 47 48 49 50

000
ASUS43 KGRB 041710
RWRGRB

NORTH-CENTRAL AND NORTHEAST WISCONSIN REGIONAL WEATHER ROUNDUP
NATIONAL WEATHER SERVICE GREEN BAY WI
1100 AM CST WED MAR 04 2015

WIZ005-009-010>012-018-019-041800-
NORTH CENTRAL WISCONSIN

CITY           SKY/WX    TMP DP  RH WIND       PRES   REMARKS
IRONWOOD       PTSUNNY    1 -11  55 W14       30.01R WCI -17
MANITOWISH WTR CLOUDY     0 -11  60 NW12G20   29.99S WCI -17
ARBOR VITAE    PTSUNNY    3  -9  57 W12G20    29.99S WCI -14
EAGLE RIVER    CLOUDY     2 -11  56 W17       29.98R HAZE    WCI -18
LAND O LAKES   CLOUDY     3 -11  50 W10G18    29.97S WCI -12
RHINELANDER    CLOUDY     2 -10  57 W15G24    29.99R WCI -17
PHILLIPS       PTSUNNY    3 -11  52 W8        30.03S WCI -11
ANTIGO         SUNNY      4  -9  56 W15G21    30.01R WCI -14
TOMAHAWK       SUNNY      4 -10  51 W16       30.03R WCI -15
MERRILL        SUNNY      6 -10  47 NW15      30.05R HAZE    WCI -12
$$

WIZ013-073-041800-
NORTHEAST WISCONSIN

CITY           SKY/WX    TMP DP  RH WIND       PRES   REMARKS
IRON MOUNTAIN  MOSUNNY    8  -7  50 NW17G26   29.96S WCI -10
MARINETTE      SUNNY     10  -8  44 W12       30.02S WCI  -4
OCONTO         SUNNY     11  -7  45 W13G18    30.06S WCI  -5
$$

WIZ017-030-035>037-045-041800-
CENTRAL WISCONSIN

CITY           SKY/WX    TMP DP  RH WIND       PRES   REMARKS
MEDFORD        SUNNY      4 -10  53 W13G20    30.05S WCI -13
WAUSAU         SUNNY      4  -8  57 W21G28    30.06R WCI -17
MOSINEE        SUNNY      3  -6  66 W20       30.08R WCI -18
MARSHFIELD     SUNNY      5 -10  50 NW22      30.10R WCI -16
WISC RAPIDS    SUNNY      9  -7  48 NW16G22   30.14R WCI  -8
STEVENS POINT  SUNNY      5  -9  51 W14G21    30.10S WCI -12
WAUPACA        SUNNY     12  -5  46 W17G23    30.12R WCI  -5
SHAWANO        SUNNY     12  -8  41 W13G23    30.08R WCI  -3
CLINTONVILLE   SUNNY     10  -6  48 W14G21    30.09R WCI  -5
$$

WIZ038-039-048-051-041800-
FOX VALLEY

CITY           SKY/WX    TMP DP  RH WIND       PRES   REMARKS
NWS GREEN BAY  SUNNY     11  -4  51 W18       30.09R WCI  -7
APPLETON       NOT AVBL
OSHKOSH        SUNNY     11  -3  53 W18G25    30.11R WCI  -7
FOND DU LAC    SUNNY     13  -2  51 NW17G25   30.11R WCI  -4
$$

WIZ022-050-052-041800-
EAST CENTRAL WISCONSIN

CITY           SKY/WX    TMP DP  RH WIND       PRES   REMARKS
STURGEON BAY   SUNNY     10  -6  48 W16G22    30.05R WCI  -7
MANITOWOC      SUNNY     14  -1  51 NW20G25   30.08R WCI  -3
SHEBOYGAN      SUNNY     12  -2  53 W14G23    30.08R WCI  -3
$$

LMZ563-521-522-541>543-041800-
LAKESHORE

STATION/POSITION TIME  TEMP    WIND        PRES    VSBY  WAVE
                       AIR SEA DIR/SP/G                  HT/PER
                 (UTC) (F)     (DEG/KT/KT) (MB)    (MI)  (FT/S)
SHEBOYGAN LKSHOR 1700   11     300/ 21/ 26 1020.2R
KEWAUNEE LKSHORE 1700   10     290/ 16/ 22 1017.0S
NORTHPORT PIER   1700   11     300/ 10/ 17 1016.6R
SISTER BAY LKSHO 1700   16     310/ 14/ 15   N/A
CHAMBERS ISLAND  1700   14     250/  4/ 12 1016.9S
MENOMINEE LKSHOR 1700   11     280/ 12     1017.6R
$$


USA.gov is the U.S. government's official web portal to all federal, state and local government web resources and services.